Weather History for TJNR - May, 2013

Change the Weather History Date:

Sunday, May 5, 2013

  Actual Average Record
Temperature  
Mean Temperature 80 °F -  
Max Temperature 88 °F 83 °F 89 °F (2015)
Min Temperature 73 °F 71 °F 71 °F (2006)
Cooling Degree Days 16    
Growing Degree Days 30 (Base 50)    
Moisture  
Dew Point 75 °F    
Average Humidity 87    
Maximum Humidity 100    
Minimum Humidity 61    
Precipitation  
Precipitation 0.18 in - - ()
Sea Level Pressure  
Sea Level Pressure 29.90 in    
Wind  
Wind Speed 6 mph (SW)    
Max Wind Speed 16 mph    
Max Gust Speed 21 mph    
Visibility 9 miles    
Events Rain    
Averages and records for this station are not official NWS values.
T = Trace of Precipitation, MM = Missing Value Source: NWS Daily Summary

Daily Weather History Graph

Daily Weather History Graph

Search for Another Location

Airport or City:

Trip Planner

Search our weather history database for the weather conditions in past years. The results will help you decide how hot, cold, wet, or windy it might be!

Date:

Astronomy

May. 05, 2013 Rise Set
Actual Time 5:53 AM AST 6:45 PM AST
Civil Twilight 5:30 AM AST 7:08 PM AST
Nautical Twilight 5:03 AM AST 7:35 PM AST
Astronomical Twilight 4:35 AM AST 8:02 PM AST
Moon 2:46 AM AST (5/5) 3:11 PM AST (5/5)
Length of Visible Light 13h 37m
Length of Day
12h 51m
Waning Crescent, 18% of the Moon is Illuminated
May 5
Waning Crescent
May 9
New
May 18
First Quarter
May 25
Full
May 31
Last Quarter

Hourly Weather History & Observations

Time (AST) Temp. Heat Index Dew Point Humidity Pressure Visibility Wind Dir Wind Speed Gust Speed Precip Events Conditions
12:53 AM 77.0 °F - 73.9 °F 90% 29.87 in 10.0 mi WSW 4.6 mph - N/A   Clear
1:53 AM 77.0 °F - 73.9 °F 90% 29.84 in 10.0 mi SW 5.8 mph - N/A   Clear
2:53 AM 75.0 °F - 73.0 °F 94% 29.83 in 10.0 mi WSW 3.5 mph - N/A   Clear
3:53 AM 75.0 °F - 73.0 °F 94% 29.83 in 10.0 mi Calm Calm - N/A   Clear
4:53 AM 75.0 °F - 73.0 °F 94% 29.85 in 10.0 mi Calm Calm - N/A   Clear
5:53 AM 73.9 °F - 73.0 °F 97% 29.87 in 10.0 mi SW 3.5 mph - N/A   Clear
6:53 AM 75.9 °F - 75.0 °F 97% 29.89 in 9.0 mi Calm Calm - N/A   Partly Cloudy
7:53 AM 79.0 °F - 73.9 °F 84% 29.91 in 10.0 mi SW 5.8 mph - N/A   Mostly Cloudy
8:53 AM 84.0 °F 91.9 °F 75.0 °F 74% 29.92 in 10.0 mi Variable 6.9 mph - N/A   Mostly Cloudy
9:53 AM 84.9 °F 93.3 °F 75.0 °F 72% 29.94 in 10.0 mi SW 8.1 mph 16.1 mph N/A   Partly Cloudy
10:53 AM 87.1 °F 94.5 °F 73.0 °F 63% 29.92 in 10.0 mi SW 15.0 mph - N/A   Clear
11:53 AM 87.1 °F 95.4 °F 73.9 °F 65% 29.92 in 10.0 mi SSW 15.0 mph - N/A   Clear
12:53 PM 84.9 °F 92.1 °F 73.9 °F 69% 29.91 in 10.0 mi SW 12.7 mph 20.7 mph N/A   Mostly Cloudy
1:53 PM 88.0 °F 95.6 °F 73.0 °F 61% 29.89 in 10.0 mi SSW 13.8 mph 20.7 mph N/A   Clear
2:53 PM 88.0 °F 97.5 °F 75.0 °F 65% 29.89 in 10.0 mi SSW 15.0 mph - N/A   Clear
3:53 PM 84.9 °F 94.1 °F 75.9 °F 74% 29.88 in 10.0 mi SSW 16.1 mph - N/A   Clear
4:53 PM 82.9 °F 90.2 °F 75.0 °F 77% 29.89 in 10.0 mi South 8.1 mph - N/A   Mostly Cloudy
5:16 PM 78.8 °F - 75.2 °F 89% 29.90 in 7.0 mi North 8.1 mph - 0.01 in Rain Light Rain
5:29 PM 77.0 °F - 75.2 °F 94% 29.91 in 1.8 mi NNE 4.6 mph - 0.09 in Rain Heavy Rain
5:39 PM 75.2 °F - 75.2 °F 100% 29.90 in 2.0 mi NE 3.5 mph - 0.17 in Rain Rain
5:49 PM 75.2 °F - 75.2 °F 100% 29.91 in 9.0 mi North 6.9 mph - 0.18 in Rain Light Rain
5:53 PM 75.9 °F - 75.9 °F 100% 29.91 in 10.0 mi North 5.8 mph - 0.18 in   Overcast
6:53 PM 77.0 °F - 75.9 °F 96% 29.92 in 9.0 mi Calm Calm - N/A   Mostly Cloudy
7:53 PM 78.1 °F - 77.0 °F 96% 29.94 in 10.0 mi Calm Calm - N/A   Overcast
8:53 PM 75.9 °F - 75.9 °F 100% 29.96 in 10.0 mi Calm Calm - N/A   Partly Cloudy
9:53 PM 75.0 °F - 75.0 °F 100% 29.97 in 10.0 mi Calm Calm - N/A   Clear
10:53 PM 75.9 °F - 75.0 °F 97% 29.97 in 10.0 mi Calm Calm - N/A   Clear
11:53 PM 75.0 °F - 75.0 °F 100% 29.96 in 10.0 mi SW 4.6 mph - N/A   Clear